Location: Buffign�court
(47.8126°N, 6.0176°E)
Time: 20:07:14
(UTC+00:00)

Aureole 1 Rocket - Pass Details

Date: 16 June 2021
Orbit: 377 x 1372 km, 73.9° (Epoch: 31 July)

Event Time Altitude Azimuth Distance (km) Brightness Sun altitude
Rises 21:26:51 0° 334° (NNW) 3,241 8.8 -13.1°
Reaches altitude 10° 21:28:59 10° 332° (NNW) 2,444 7.6 -13.2°
Maximum altitude 21:34:39 70° 251° (WSW) 1,064 4.2 -13.7°
Enters shadow 21:40:22 17° 171° (S) 2,555 5.6 -14.2°
